Location: Middle Street
(51.7167°N, 0.0333°E)
Time: 02:33:51
(UTC+00:00)

Cosmos 968 Rocket - Pass Details

Date: 20 January 2021
Orbit: 740 x 771 km, 74.0° (Epoch: 24 February)

Event Time Altitude Azimuth Distance (km) Brightness Sun altitude
Rises 17:17:26 0° 212° (SSW) 3,168 7.7 -7.6°
Reaches altitude 10° 17:19:47 10° 215° (SW) 2,248 6.9 -8.0°
Maximum altitude 17:24:51 67° 298° (WNW) 807 3.8 -8.7°
Drops below altitude 10° 17:29:58 10° 21° (NNE) 2,267 5.6 -9.4°
Enters shadow 17:31:55 - 24° (NNE) 3,030 6.2 -9.7°
